Time,TemperatureF,DewpointF,PressureIn,WindDirection,WindDirectionDegrees,WindSpeedMPH,WindSpeedGustMPH,Humidity,HourlyPrecipIn,Conditions,Clouds,dailyrainin,SoftwareType,DateUTC
2013-08-20 00:13:00,62.0,58.0,29.99,WSW,254,0.0,-999.0,87,-99.99,,,-99.99,,2013-08-20 04:13:00,
2013-08-20 00:23:00,62.0,58.0,29.99,WSW,254,0.0,-999.0,87,-99.99,,,-99.99,,2013-08-20 04:23:00,
2013-08-20 00:53:00,62.0,59.0,29.99,WSW,254,0.0,-999.0,90,-99.99,,,-99.99,,2013-08-20 04:53:00,
2013-08-20 01:12:00,62.0,59.0,29.99,WSW,254,0.0,-999.0,90,-99.99,,,-99.99,,2013-08-20 05:12:00,
2013-08-20 01:22:00,62.0,59.0,29.99,WSW,254,0.0,-999.0,90,-99.99,,,-99.99,,2013-08-20 05:22:00,
2013-08-20 01:52:00,62.0,59.0,29.99,WSW,254,0.0,-999.0,90,-99.99,,,-99.99,,2013-08-20 05:52:00,
2013-08-20 02:11:00,62.0,59.0,29.99,WSW,254,0.0,-999.0,90,-99.99,,,-99.99,,2013-08-20 06:11:00,
2013-08-20 02:21:00,62.0,59.0,29.99,WSW,254,0.0,-999.0,89,-99.99,,,-99.99,,2013-08-20 06:21:00,
2013-08-20 02:42:00,61.0,58.0,29.99,WSW,254,0.0,-999.0,90,-99.99,,,-99.99,,2013-08-20 06:42:00,
2013-08-20 02:52:00,61.0,58.0,29.99,WSW,254,0.0,-999.0,90,-99.99,,,-99.99,,2013-08-20 06:52:00,
2013-08-20 03:22:00,61.0,58.0,29.99,WSW,254,0.0,-999.0,91,-99.99,,,-99.99,,2013-08-20 07:22:00,
2013-08-20 03:52:00,61.0,58.0,29.99,WSW,254,0.0,-999.0,91,-99.99,,,-99.99,,2013-08-20 07:52:00,
2013-08-20 04:11:00,61.0,58.0,29.99,WSW,254,0.0,-999.0,91,-99.99,,,-99.99,,2013-08-20 08:11:00,
2013-08-20 04:21:00,61.0,58.0,29.99,WSW,254,0.0,-999.0,91,-99.99,,,-99.99,,2013-08-20 08:21:00,
2013-08-20 04:52:00,60.0,57.0,29.99,WSW,254,0.0,-999.0,91,-99.99,,,-99.99,,2013-08-20 08:52:00,
2013-08-20 05:11:00,60.0,58.0,29.99,WSW,254,0.0,-999.0,93,-99.99,,,-99.99,,2013-08-20 09:11:00,
2013-08-20 05:21:00,60.0,58.0,30.00,WSW,254,0.0,-999.0,93,-99.99,,,-99.99,,2013-08-20 09:21:00,
2013-08-20 05:42:00,60.0,58.0,29.99,WSW,254,0.0,-999.0,94,-99.99,,,-99.99,,2013-08-20 09:42:00,
2013-08-20 05:53:00,60.0,58.0,29.99,WSW,254,0.0,-999.0,94,-99.99,,,-99.99,,2013-08-20 09:53:00,
2013-08-20 06:12:00,60.0,58.0,30.00,WSW,254,0.0,-999.0,93,-99.99,,,-99.99,,2013-08-20 10:12:00,
2013-08-20 06:22:00,60.0,58.0,30.00,WSW,254,0.0,-999.0,93,-99.99,,,-99.99,,2013-08-20 10:22:00,
2013-08-20 06:52:00,60.0,58.0,30.00,WSW,254,0.0,-999.0,93,-99.99,,,-99.99,,2013-08-20 10:52:00,
2013-08-20 07:11:00,60.0,58.0,30.02,WSW,254,0.0,-999.0,94,-99.99,,,-99.99,,2013-08-20 11:11:00,
2013-08-20 07:22:00,60.0,58.0,30.02,WSW,254,0.0,-999.0,94,-99.99,,,-99.99,,2013-08-20 11:22:00,
2013-08-20 07:33:00,60.0,58.0,30.02,WSW,254,0.0,-999.0,94,-99.99,,,-99.99,,2013-08-20 11:33:00,
2013-08-20 07:42:00,60.0,58.0,30.02,WSW,254,0.0,-999.0,94,-99.99,,,-99.99,,2013-08-20 11:42:00,
2013-08-20 07:52:00,60.0,59.0,30.03,WSW,254,0.0,-999.0,95,-99.99,,,-99.99,,2013-08-20 11:52:00,
2013-08-20 08:12:00,60.0,59.0,30.03,WSW,254,0.0,-999.0,95,-99.99,,,-99.99,,2013-08-20 12:12:00,
2013-08-20 08:21:00,60.0,59.0,30.03,WSW,254,0.0,-999.0,95,-99.99,,,-99.99,,2013-08-20 12:21:00,
2013-08-20 08:52:00,62.0,61.0,30.04,WSW,254,0.0,-999.0,95,-99.99,,,-99.99,,2013-08-20 12:52:00,
2013-08-20 09:11:00,63.0,62.0,30.05,WSW,254,0.0,-999.0,95,-99.99,,,-99.99,,2013-08-20 13:11:00,
2013-08-20 09:22:00,64.0,62.0,30.05,WSW,254,0.0,-999.0,93,-99.99,,,-99.99,,2013-08-20 13:22:00,
2013-08-20 09:52:00,68.0,64.0,30.05,SSE,147,0.0,-999.0,88,-99.99,,,-99.99,,2013-08-20 13:52:00,
2013-08-20 10:11:00,70.0,65.0,30.05,SSE,163,0.0,-999.0,85,-99.99,,,-99.99,,2013-08-20 14:11:00,
2013-08-20 10:22:00,72.0,66.0,30.05,WSW,246,0.0,-999.0,82,-99.99,,,-99.99,,2013-08-20 14:22:00,
2013-08-20 10:52:00,75.0,67.0,30.05,SE,135,0.0,-999.0,77,-99.99,,,-99.99,,2013-08-20 14:52:00,
2013-08-20 11:11:00,76.0,68.0,30.05,SSE,155,0.0,-999.0,77,-99.99,,,-99.99,,2013-08-20 15:11:00,
2013-08-20 11:22:00,77.0,67.0,30.05,West,259,0.0,-999.0,72,-99.99,,,-99.99,,2013-08-20 15:22:00,
2013-08-20 11:53:00,80.0,68.0,30.05,WSW,240,1.0,-999.0,68,-99.99,,,-99.99,,2013-08-20 15:53:00,
2013-08-20 12:15:00,80.0,68.0,30.05,NNW,345,1.0,-999.0,66,-99.99,,,-99.99,,2013-08-20 16:15:00,
2013-08-20 12:30:00,-999.0,-99.9,30.05,SSE,153,0.0,-999.0,66,-99.99,,,-99.99,,2013-08-20 16:30:00,
2013-08-20 12:52:00,81.0,67.0,30.05,NW,325,1.0,-999.0,62,-99.99,,,-99.99,,2013-08-20 16:52:00,
2013-08-20 13:12:00,82.0,68.0,30.05,SSE,163,1.0,-999.0,62,-99.99,,,-99.99,,2013-08-20 17:12:00,
2013-08-20 13:24:00,82.0,68.0,30.04,West,273,0.0,-999.0,62,-99.99,,,-99.99,,2013-08-20 17:24:00,
2013-08-20 13:52:00,84.0,67.0,30.04,NNE,30,1.0,-999.0,56,-99.99,,,-99.99,,2013-08-20 17:52:00,
2013-08-20 14:12:00,82.0,67.0,30.03,West,260,1.0,-999.0,60,-99.99,,,-99.99,,2013-08-20 18:12:00,
2013-08-20 14:22:00,82.0,66.0,30.03,WNW,289,2.0,-999.0,59,-99.99,,,-99.99,,2013-08-20 18:22:00,
2013-08-20 14:52:00,84.0,67.0,30.02,South,178,2.0,-999.0,57,-99.99,,,-99.99,,2013-08-20 18:52:00,
2013-08-20 15:11:00,85.0,65.0,30.02,WNW,298,2.0,-999.0,52,-99.99,,,-99.99,,2013-08-20 19:11:00,
2013-08-20 15:22:00,85.0,65.0,30.01,NW,319,2.0,-999.0,51,-99.99,,,-99.99,,2013-08-20 19:22:00,
2013-08-20 15:42:00,85.0,65.0,30.01,South,173,2.0,-999.0,52,-99.99,,,-99.99,,2013-08-20 19:42:00,
2013-08-20 15:52:00,85.0,62.0,30.01,South,184,2.0,-999.0,47,-99.99,,,-99.99,,2013-08-20 19:52:00,
2013-08-20 16:12:00,84.0,64.0,30.01,NNW,337,2.0,-999.0,52,-99.99,,,-99.99,,2013-08-20 20:12:00,
2013-08-20 16:22:00,85.0,65.0,30.01,SSE,149,2.0,-999.0,51,-99.99,,,-99.99,,2013-08-20 20:22:00,
2013-08-20 16:52:00,85.0,65.0,30.00,South,170,2.0,-999.0,52,-99.99,,,-99.99,,2013-08-20 20:52:00,
2013-08-20 17:11:00,84.0,66.0,30.00,WSW,254,1.0,-999.0,55,-99.99,,,-99.99,,2013-08-20 21:11:00,
2013-08-20 17:22:00,84.0,63.0,30.00,NNW,332,3.0,-999.0,49,-99.99,,,-99.99,,2013-08-20 21:22:00,
2013-08-20 17:55:00,85.0,65.0,29.99,West,277,1.0,-999.0,51,-99.99,,,-99.99,,2013-08-20 21:55:00,
2013-08-20 18:14:00,85.0,66.0,29.99,WSW,246,1.0,-999.0,53,-99.99,,,-99.99,,2013-08-20 22:14:00,
2013-08-20 18:24:00,84.0,65.0,29.99,North,9,2.0,-999.0,53,-99.99,,,-99.99,,2013-08-20 22:24:00,
2013-08-20 18:53:00,84.0,66.0,29.99,SW,219,1.0,-999.0,55,-99.99,,,-99.99,,2013-08-20 22:53:00,
2013-08-20 19:12:00,83.0,64.0,29.99,SE,143,2.0,-999.0,53,-99.99,,,-99.99,,2013-08-20 23:12:00,
2013-08-20 19:22:00,82.0,64.0,29.99,West,269,1.0,-999.0,54,-99.99,,,-99.99,,2013-08-20 23:22:00,
2013-08-20 19:53:00,81.0,63.0,29.99,West,266,1.0,-999.0,55,-99.99,,,-99.99,,2013-08-20 23:53:00,
2013-08-20 20:12:00,80.0,64.0,29.99,SW,225,0.0,-999.0,58,-99.99,,,-99.99,,2013-08-21 00:12:00,
2013-08-20 20:23:00,79.0,64.0,29.99,SW,225,0.0,-999.0,61,-99.99,,,-99.99,,2013-08-21 00:23:00,
2013-08-20 20:42:00,78.0,64.0,29.99,SW,219,0.0,-999.0,63,-99.99,,,-99.99,,2013-08-21 00:42:00,
2013-08-20 20:52:00,77.0,64.0,29.99,SW,219,0.0,-999.0,65,-99.99,,,-99.99,,2013-08-21 00:52:00,
2013-08-20 21:11:00,76.0,64.0,29.99,SW,219,0.0,-999.0,67,-99.99,,,-99.99,,2013-08-21 01:11:00,
2013-08-20 21:22:00,74.0,64.0,30.00,SW,219,0.0,-999.0,70,-99.99,,,-99.99,,2013-08-21 01:22:00,
2013-08-20 21:42:00,73.0,64.0,30.00,SW,219,0.0,-999.0,73,-99.99,,,-99.99,,2013-08-21 01:42:00,
2013-08-20 21:52:00,72.0,64.0,30.00,SW,219,0.0,-999.0,76,-99.99,,,-99.99,,2013-08-21 01:52:00,
2013-08-20 22:12:00,71.0,64.0,30.00,SW,219,0.0,-999.0,78,-99.99,,,-99.99,,2013-08-21 02:12:00,
2013-08-20 22:22:00,70.0,64.0,30.01,SW,219,0.0,-999.0,80,-99.99,,,-99.99,,2013-08-21 02:22:00,
2013-08-20 22:42:00,69.0,63.0,30.01,SW,219,0.0,-999.0,82,-99.99,,,-99.99,,2013-08-21 02:42:00,
2013-08-20 22:52:00,69.0,64.0,30.01,SW,219,0.0,-999.0,84,-99.99,,,-99.99,,2013-08-21 02:52:00,
2013-08-20 23:12:00,69.0,64.0,30.00,SW,219,0.0,-999.0,85,-99.99,,,-99.99,,2013-08-21 03:12:00,
2013-08-20 23:23:00,68.0,64.0,30.00,SW,219,0.0,-999.0,86,-99.99,,,-99.99,,2013-08-21 03:23:00,
2013-08-20 23:44:00,68.0,64.0,30.00,SW,219,0.0,-999.0,87,-99.99,,,-99.99,,2013-08-21 03:44:00,
2013-08-20 23:55:00,68.0,64.0,30.00,SW,219,0.0,-999.0,87,-99.99,,,-99.99,,2013-08-21 03:55:00,